Location: Strawberry
(45.6646°N, 111.9596°W)
Time: 11:38:41
(UTC+00:00)

Transit 4A - Pass Details

Date: 06 October 2022
Orbit: 871 x 973 km, 66.8° (Epoch: 26 November)

Event Time Altitude Azimuth Distance (km) Brightness Sun altitude
Rises 12:51:14 0° 329° (NNW) 3,499 10.6 -8.1°
Reaches altitude 10° 12:53:48 10° 333° (NNW) 2,547 9.9 -7.6°
Maximum altitude 12:59:34 57° 52° (NE) 1,026 8.5 -6.6°
Drops below altitude 10° 13:05:17 10° 131° (SE) 2,515 11.0 -5.6°
Sets 13:07:48 0° 135° (SE) 3,452 11.7 -5.2°
